TimePST,TemperatureF,Dew PointF,Humidity,Sea Level PressureIn,VisibilityMPH,Wind Direction,Wind SpeedMPH,Gust SpeedMPH,PrecipitationIn,Events,Conditions,WindDirDegrees,DateUTC
1:55 AM,44.1,21.0,40,30.31,10.0,Calm,Calm,-,N/A,,Clear,0,2012-11-12 09:55:00
2:55 AM,52.0,15.1,23,30.29,10.0,North,8.1,-,N/A,,Clear,360,2012-11-12 10:55:00
4:55 AM,45.0,19.9,37,30.28,10.0,Calm,Calm,-,N/A,,Clear,0,2012-11-12 12:55:00
5:55 AM,54.0,10.9,18,30.29,10.0,ENE,9.2,-,N/A,,Clear,70,2012-11-12 13:55:00
6:55 AM,55.0,12.0,18,30.29,10.0,NE,8.1,-,N/A,,Clear,50,2012-11-12 14:55:00
7:55 AM,62.1,10.0,13,30.30,10.0,ENE,15.0,-,N/A,,Clear,70,2012-11-12 15:55:00
8:55 AM,66.0,10.0,11,30.29,10.0,ENE,17.3,26.5,N/A,,Clear,70,2012-11-12 16:55:00
9:55 AM,69.1,9.0,10,30.26,10.0,ENE,21.9,28.8,N/A,,Clear,70,2012-11-12 17:55:00
10:55 AM,72.0,9.0,9,30.23,10.0,ENE,18.4,-,N/A,,Clear,70,2012-11-12 18:55:00
11:55 AM,73.9,8.1,8,30.20,10.0,East,18.4,-,N/A,,Clear,80,2012-11-12 19:55:00
12:55 PM,75.0,8.1,8,30.17,10.0,ENE,12.7,-,N/A,,Clear,60,2012-11-12 20:55:00
1:41 PM,71.6,17.6,13,30.14,10.0,West,15.0,-,N/A,,Clear,270,2012-11-12 21:41:00
1:55 PM,71.1,19.0,14,30.17,10.0,West,15.0,-,N/A,,Clear,280,2012-11-12 21:55:00
2:55 PM,70.0,14.0,12,30.16,10.0,West,12.7,-,N/A,,Clear,280,2012-11-12 22:55:00
3:55 PM,68.0,15.1,13,30.15,10.0,West,9.2,-,N/A,,Clear,270,2012-11-12 23:55:00
4:55 PM,60.1,28.9,31,30.15,10.0,WNW,5.8,-,N/A,,Clear,290,2012-11-13 00:55:00
5:55 PM,59.0,36.0,42,30.17,10.0,Calm,Calm,-,N/A,,Clear,0,2012-11-13 01:55:00
6:55 PM,55.0,33.1,43,30.18,10.0,Calm,Calm,-,N/A,,Clear,0,2012-11-13 02:55:00
7:55 PM,52.0,35.1,53,30.20,10.0,Calm,Calm,-,N/A,,Clear,0,2012-11-13 03:55:00
8:55 PM,52.0,28.9,41,30.19,10.0,Calm,Calm,-,N/A,,Clear,0,2012-11-13 04:55:00
9:55 PM,46.9,28.9,50,30.20,10.0,Calm,Calm,-,N/A,,Clear,0,2012-11-13 05:55:00
10:55 PM,57.9,12.9,17,30.17,10.0,NE,6.9,-,N/A,,Clear,50,2012-11-13 06:55:00
11:55 PM,51.1,18.0,27,30.14,10.0,North,4.6,-,N/A,,Clear,350,2012-11-13 07:55:00